CW5306 Weather Reports


time (UTC)temp
F
wind
direction
speed
knots
gust
knots
rain 1hr
in
rain 24hr
in
rain mn
in
humidity
%
barometer
mb
20240614114044 75 60 7.8 13.9 0.00 0.00 0.00 80 1017.4
20240614113543 75 91 7.0 13.9 0.00 0.00 0.00 81 1017.3
20240614113043 75 102 7.8 13.9 0.00 0.00 0.00 81 1017.6
20240614112544 75 88 7.8 13.9 0.00 0.00 0.00 79 1017.5
20240614112044 75 114 7.0 13.0 0.00 0.00 0.00 79 1017.3
20240614111544 75 109 7.8 15.6 0.00 0.00 0.00 78 1017.5
20240614111043 75 103 7.0 15.6 0.00 0.00 0.00 79 1017.8
20240614110815 75 67 6.1 15.6 0.00 0.00 0.00 78 1017.7
20240614110043 75 116 5.2 16.5 0.00 0.00 0.00 78 1017.9
20240614105815 75 113 7.8 16.5 0.00 0.00 0.00 78 1017.8
20240614105049 75 87 10.4 14.8 0.00 0.00 0.00 77 1018.1
20240614105043 75 103 7.8 14.8 0.00 0.00 0.00 78 1017.6
20240614104043 75 108 7.8 16.5 0.00 0.00 0.00 77 1018.0
20240614103544 75 96 6.1 13.9 0.00 0.00 0.00 77 1018.2
20240614103044 75 124 7.0 13.9 0.00 0.00 0.00 78 1018.2
20240614102814 75 60 4.3 13.9 0.00 0.00 0.00 79 1018.2
20240614102052 75 154 5.2 20.0 0.00 0.00 0.00 78 1018.3
20240614102043 75 119 4.3 13.0 0.00 0.00 0.00 78 1018.3
20240614101543 75 113 7.8 20.0 0.00 0.00 0.00 78 1018.4
20240614100543 75 79 6.1 14.8 0.00 0.00 0.00 78 1018.4
20240614100043 75 78 7.8 13.9 0.00 0.00 0.00 78 1018.4
20240614095543 75 77 9.6 15.6 0.00 0.00 0.00 77 1018.5
20240614095313 75 105 8.7 15.6 0.00 0.00 0.00 78 1018.4
20240614094543 75 73 8.7 13.0 0.00 0.00 0.00 78 1018.6
20240614094043 75 99 7.0 12.2 0.00 0.00 0.00 78 1018.3
20240614093543 75 71 5.2 15.6 0.00 0.00 0.00 78 1018.4
20240614093043 75 98 5.2 15.6 0.00 0.00 0.00 78 1018.5
20240614092821 75 127 3.5 14.8 0.00 0.00 0.00 78 1018.6
20240614092542 75 58 6.1 15.6 0.00 0.00 0.00 78 1018.4
20240614091544 75 98 7.0 14.8 0.00 0.00 0.00 78 1018.6
20240614091043 75 104 8.7 13.0 0.00 0.00 0.00 79 1018.6
20240614090543 75 77 8.7 20.0 0.00 0.00 0.00 77 1018.5
20240614090043 75 51 9.6 20.0 0.00 0.00 0.00 78 1018.7
20240614085815 75 95 6.1 11.3 0.00 0.00 0.00 78 1018.6
20240614085043 75 119 6.1 13.0 0.00 0.00 0.00 78 1018.7
20240614084543 75 93 7.0 13.0 0.00 0.00 0.00 76 1018.7
20240614084042 75 86 4.3 13.9 0.00 0.00 0.00 77 1018.8
20240614083543 76 113 6.1 15.6 0.00 0.00 0.00 77 1018.8
20240614083314 75 83 8.7 15.6 0.00 0.00 0.00 77 1018.7
20240614082815 76 68 9.6 14.8 0.00 0.00 0.00 78 1018.6
20240614082043 75 110 4.3 13.9 0.00 0.00 0.00 76 1018.7
20240614081813 75 74 8.7 13.0 0.00 0.00 0.00 78 1018.6
20240614081044 76 115 3.5 14.8 0.00 0.00 0.00 78 1018.7
20240614080543 75 102 4.3 14.8 0.00 0.00 0.00 77 1018.6
20240614080044 75 147 4.3 12.2 0.00 0.00 0.00 77 1018.7
20240614075543 76 83 5.2 12.2 0.00 0.00 0.00 78 1018.5
20240614075043 76 122 9.6 12.2 0.00 0.00 0.00 79 1018.6
20240614074543 76 117 6.1 13.9 0.00 0.00 0.00 79 1018.5
20240614074044 76 87 3.5 14.8 0.00 0.00 0.00 77 1018.7
20240614073544 76 72 6.1 14.8 0.00 0.00 0.00 77 1018.6
20240614073043 76 102 3.5 13.0 0.00 0.00 0.00 77 1018.5
20240614072542 76 106 4.3 13.0 0.00 0.00 0.00 77 1018.6
20240614072042 76 102 3.5 13.0 0.00 0.00 0.00 77 1018.6
20240614071814 76 77 6.1 13.9 0.00 0.00 0.00 77 1018.5
20240614071043 76 83 6.1 13.9 0.00 0.00 0.00 75 1018.5
20240614070543 76 118 7.0 13.0 0.00 0.00 0.00 77 1018.6
20240614070043 76 112 7.8 13.0 0.00 0.00 0.00 77 1018.3
20240614065543 76 106 3.5 13.9 0.00 0.00 0.00 77 1018.5
20240614065043 76 116 3.5 14.8 0.00 0.00 0.00 78 1018.4
20240614064544 76 90 7.0 14.8 0.00 0.00 0.00 78 1018.3
20240614064043 76 104 9.6 16.5 0.00 0.00 0.00 77 1018.2
20240614063542 76 79 7.0 16.5 0.00 0.00 0.00 76 1018.1
20240614063043 76 122 7.8 14.8 0.00 0.00 0.00 76 1018.2
20240614062543 76 93 9.6 14.8 0.00 0.00 0.00 76 1018.2
20240614062044 76 57 5.2 15.6 0.00 0.00 0.00 77 1018.0
20240614061543 76 86 9.6 15.6 0.00 0.00 0.00 76 1018.0
20240614061043 76 131 10.4 21.7 0.00 0.00 0.00 77 1017.9
20240614060543 76 74 6.1 21.7 0.00 0.00 0.00 76 1018.0
20240614060043 76 85 10.4 16.5 0.00 0.00 0.00 75 1018.1
20240614055543 76 106 3.5 13.9 0.00 0.00 0.00 77 1017.7
20240614055042 76 94 11.3 15.6 0.00 0.00 0.00 77 1017.8
20240614054543 76 73 8.7 15.6 0.00 0.00 0.00 76 1017.9
20240614054043 76 84 7.8 16.5 0.00 0.00 0.00 77 1017.6
20240614053543 76 78 7.8 14.8 0.00 0.00 0.00 77 1017.7
20240614053313 76 70 7.8 14.8 0.00 0.00 0.00 77 1017.6
20240614052543 76 111 5.2 14.8 0.00 0.00 0.00 78 1017.3
20240614052044 77 53 4.3 14.8 0.00 0.00 0.00 79 1017.4
20240614051543 77 61 8.7 12.2 0.00 0.00 0.00 79 1017.5
20240614051043 77 88 7.0 12.2 0.00 0.00 0.00 79 1017.1
20240614050543 77 104 3.5 12.2 0.00 0.00 0.00 79 1017.4
20240614050043 77 115 7.8 13.9 0.00 0.00 0.00 79 1017.3
20240614045543 77 83 6.1 13.9 0.00 0.00 0.00 78 1017.2
20240614045044 77 131 4.3 12.2 0.00 0.00 0.00 78 1017.1
20240614044542 77 88 6.1 13.9 0.00 0.00 0.00 77 1016.9
20240614044314 77 127 4.3 16.5 0.00 0.00 0.00 77 1017.3
20240614043542 77 100 6.1 16.5 0.00 0.00 0.00 76 1016.8
20240614043043 77 129 4.3 13.9 0.00 0.00 0.00 75 1016.8
20240614042543 77 63 6.1 13.9 0.00 0.00 0.00 75 1016.8
20240614042042 77 93 8.7 14.8 0.00 0.00 0.00 76 1016.6
20240614041542 77 95 7.0 14.8 0.00 0.00 0.00 76 1016.7
20240614041043 77 72 8.7 12.2 0.00 0.00 0.00 78 1016.7
20240614040543 77 85 5.2 13.0 0.00 0.00 0.00 77 1016.4
20240614040043 78 121 8.7 13.9 0.00 0.00 0.00 77 1016.5
20240614035542 78 95 9.6 13.9 0.00 0.00 0.00 76 1016.4
20240614035043 78 68 7.8 13.9 0.00 0.00 0.00 76 1016.0
20240614034543 78 112 4.3 12.2 0.00 0.00 0.00 77 1016.3
20240614034314 78 115 2.6 13.0 0.00 0.00 0.00 76 1016.2
20240614033815 78 90 8.7 16.5 0.00 0.00 0.00 75 1016.4
20240614033045 78 77 7.8 16.5 0.00 0.00 0.00 75 1016.4
20240614032543 79 107 6.1 13.9 0.00 0.00 0.00 74 1016.2
20240614032043 79 113 7.0 13.9 0.00 0.00 0.00 73 1016.3
20240614031543 79 78 5.2 13.0 0.00 0.00 0.00 73 1016.2
20240614031315 79 110 4.3 13.0 0.00 0.00 0.00 74 1016.3
20240614030543 79 115 7.0 13.0 0.00 0.00 0.00 75 1016.3
20240614030044 79 110 7.8 13.0 0.00 0.00 0.00 75 1016.1
20240614025543 79 101 2.6 13.0 0.00 0.00 0.00 75 1016.2
20240614025043 79 80 6.1 13.9 0.00 0.00 0.00 74 1016.1
20240614024543 79 144 9.6 13.9 0.00 0.00 0.00 76 1015.9
20240614024043 79 83 3.5 15.6 0.00 0.00 0.00 78 1016.0
20240614023542 78 58 7.8 15.6 0.00 0.00 0.00 77 1016.0
20240614023043 78 110 3.5 13.0 0.00 0.00 0.00 78 1016.0
20240614022543 79 73 4.3 15.6 0.00 0.00 0.00 78 1016.0
20240614022043 80 110 8.7 15.6 0.00 0.00 0.00 75 1015.9
20240614021813 80 57 5.2 13.9 0.00 0.00 0.00 73 1016.0
20240614021043 80 68 4.3 13.0 0.00 0.00 0.00 72 1016.0
20240614020813 80 74 4.3 13.0 0.00 0.00 0.00 71 1016.2
20240614020043 80 97 6.1 14.8 0.00 0.00 0.00 70 1016.0
20240614015537 80 115 6.1 16.5 0.00 0.00 0.00 72 1016.2
20240614015531 80 78 8.7 16.5 0.00 0.00 0.00 69 1016.0
20240614014530 80 50 5.2 13.9 0.00 0.00 0.00 72 1016.3
20240614014030 80 122 4.3 13.9 0.00 0.00 0.00 74 1016.4
20240614013531 80 103 8.7 13.0 0.00 0.00 0.00 73 1016.5
20240614013302 80 49 10.4 14.8 0.00 0.00 0.00 72 1016.5
20240614012802 81 87 7.8 16.5 0.00 0.00 0.00 71 1016.3
20240614012019 81 97 5.2 16.5 0.00 0.00 0.00 71 1016.4
20240614011519 81 76 9.6 13.0 0.00 0.00 0.00 73 1016.2
20240614011019 80 122 7.0 13.9 0.00 0.00 0.00 73 1016.4
20240614010519 81 76 7.8 14.8 0.00 0.00 0.00 72 1016.4
20240614010024 81 109 11.3 14.8 0.00 0.00 0.00 72 1016.6
20240614010019 81 84 7.8 14.8 0.00 0.00 0.00 71 1016.3
20240614005019 80 99 9.6 14.8 0.00 0.00 0.00 71 1016.5
20240614004508 80 105 7.0 14.8 0.00 0.00 0.00 71 1016.4
20240614004006 80 99 12.2 15.6 0.00 0.00 0.00 73 1016.5
20240614003506 81 108 6.1 19.1 0.00 0.00 0.00 73 1016.7
20240614003007 80 70 7.0 19.1 0.00 0.00 0.00 73 1016.6
20240614002507 81 104 10.4 16.5 0.00 0.00 0.00 71 1016.5
20240614002007 81 100 3.5 14.8 0.00 0.00 0.00 74 1016.8
20240614001507 80 103 7.8 14.8 0.00 0.00 0.00 72 1016.8
20240614000955 80 107 6.1 16.5 0.00 0.00 0.00 74 1016.6
20240614000455 80 92 10.4 16.5 0.00 0.00 0.00 72 1016.9
20240613235955 80 89 8.7 14.8 0.00 0.00 0.00 73 1017.1
20240613235455 80 103 7.0 14.8 0.00 0.00 0.00 73 1017.0
20240613234955 81 113 4.3 14.8 0.00 0.00 0.00 72 1017.0
20240613234454 81 104 7.8 14.8 0.00 0.00 0.00 73 1017.4
20240613233955 81 111 6.1 19.1 0.00 0.00 0.00 71 1017.3
20240613233455 81 65 8.7 19.1 0.00 0.00 0.00 71 1017.4
20240613232955 81 62 10.4 14.8 0.00 0.00 0.00 72 1017.2
20240613232454 81 82 5.2 13.9 0.00 0.00 0.00 73 1017.4
20240613231955 80 70 8.7 13.9 0.00 0.00 0.00 72 1017.5
20240613231455 80 112 8.7 16.5 0.00 0.00 0.00 71 1017.7
20240613231226 80 92 6.1 16.5 0.00 0.00 0.00 72 1017.5
20240613230455 80 81 4.3 15.6 0.00 0.02 0.00 73 1018.0
20240613225955 80 106 11.3 14.8 0.00 0.02 0.00 71 1017.9
20240613225456 81 56 7.8 16.5 0.00 0.02 0.00 71 1017.8
20240613224955 81 11 4.3 16.5 0.00 0.02 0.00 70 1017.9
20240613224728 80 93 8.7 15.6 0.00 0.02 0.00 73 1018.0
20240613223955 80 123 10.4 18.2 0.00 0.02 0.00 72 1018.1
20240613223455 80 74 6.1 18.2 0.00 0.02 0.00 73 1017.8
20240613222956 80 62 7.8 16.5 0.00 0.02 0.00 73 1018.1
20240613222455 80 29 10.4 16.5 0.00 0.02 0.00 72 1018.2
20240613221955 80 93 10.4 15.6 0.00 0.02 0.00 72 1018.1
20240613221456 80 76 7.8 15.6 0.00 0.03 0.00 73 1018.5
20240613220955 81 113 5.2 14.8 0.00 0.03 0.00 74 1018.6
20240613220725 81 93 7.0 14.8 0.00 0.03 0.00 71 1018.7
20240613215956 81 99 7.8 14.8 0.00 0.03 0.00 72 1018.5
20240613215455 81 112 3.5 15.6 0.00 0.03 0.00 73 1018.7
20240613214956 81 55 7.8 15.6 0.00 0.03 0.00 72 1018.8
20240613214456 81 48 7.0 15.6 0.00 0.03 0.00 70 1018.8
20240613213955 81 97 9.6 14.8 0.00 0.03 0.00 72 1018.8
20240613213456 81 77 8.7 13.9 0.00 0.03 0.00 72 1018.9
20240613212956 81 76 10.4 13.9 0.00 0.03 0.00 71 1018.8
20240613212455 81 59 9.6 13.9 0.00 0.03 0.00 71 1018.9
20240613211955 80 118 7.8 14.8 0.00 0.03 0.00 72 1019.0
20240613211455 80 19 9.6 14.8 0.00 0.03 0.00 72 1018.9
20240613210955 80 72 9.6 13.9 0.00 0.03 0.00 70 1019.0
20240613210454 80 108 8.7 14.8 0.00 0.03 0.00 72 1018.9
20240613210226 80 101 5.2 14.8 0.00 0.03 0.00 72 1019.0
20240613205455 81 90 7.8 12.2 0.00 0.03 0.00 71 1018.8
20240613204955 80 83 2.6 14.8 0.00 0.03 0.00 73 1019.0
20240613204455 80 52 6.1 15.6 0.00 0.03 0.00 73 1018.7
20240613203954 80 56 4.3 15.6 0.00 0.03 0.00 72 1019.1
20240613203455 80 67 10.4 14.8 0.00 0.03 0.00 73 1018.9
20240613202955 80 119 8.7 13.0 0.00 0.03 0.00 72 1019.1
20240613202454 80 46 9.6 13.0 0.00 0.03 0.00 72 1019.3
20240613202001 80 93 7.0 14.8 0.00 0.03 0.00 74 1019.3
20240613201955 80 80 7.8 13.0 0.00 0.03 0.00 73 1019.3
20240613200955 80 118 7.0 16.5 0.00 0.03 0.00 73 1019.3
20240613200455 80 119 3.5 16.5 0.00 0.03 0.00 73 1019.2
20240613195955 80 99 7.8 14.8 0.00 0.03 0.00 72 1019.1
20240613195455 80 89 3.5 16.5 0.00 0.03 0.00 72 1019.3
20240613194955 80 69 8.7 16.5 0.00 0.03 0.00 71 1019.0
20240613194726 80 111 9.6 13.9 0.00 0.03 0.00 72 1019.5
20240613194001 79 97 5.2 15.6 0.00 0.03 0.00 72 1019.3
20240613193955 80 72 8.7 15.6 0.00 0.03 0.00 71 1019.2
20240613192955 79 111 7.0 14.8 0.00 0.03 0.00 70 1019.5
20240613192456 79 86 9.6 13.9 0.00 0.03 0.00 72 1019.4
20240613191956 79 94 8.7 15.6 0.00 0.03 0.00 71 1019.3
20240613191455 79 144 7.8 15.6 0.00 0.03 0.00 72 1019.5
20240613190955 79 103 5.2 14.8 0.00 0.03 0.00 73 1019.4
20240613190725 79 112 5.2 15.6 0.00 0.03 0.00 72 1019.2
20240613185955 78 49 8.7 15.6 0.00 0.03 0.00 76 1019.5
20240613185726 79 126 6.1 13.0 0.00 0.03 0.00 74 1019.4
20240613184955 79 71 7.0 13.0 0.00 0.03 0.00 74 1019.2
20240613184454 79 94 4.3 14.8 0.00 0.03 0.00 75 1019.4
20240613183954 78 102 6.1 15.6 0.00 0.03 0.00 76 1019.1
20240613183455 78 75 7.8 14.8 0.00 0.03 0.00 75 1019.2
20240613182955 78 56 5.2 14.8 0.00 0.03 0.00 75 1019.1
20240613182455 78 118 4.3 14.8 0.00 0.03 0.00 76 1019.0
20240613181955 78 82 3.5 14.8 0.00 0.03 0.00 74 1019.2
20240613181456 78 30 8.7 13.9 0.00 0.03 0.00 75 1019.1
20240613180955 78 55 5.2 13.0 0.00 0.03 0.00 76 1019.0
20240613180455 78 75 5.2 14.8 0.00 0.03 0.00 77 1019.1
20240613175955 77 116 9.6 14.8 0.00 0.04 0.00 77 1019.1
20240613175455 77 72 4.3 19.1 0.00 0.04 0.00 78 1018.7
20240613174955 76 120 6.1 19.1 0.00 0.04 0.00 77 1018.9
20240613174727 76 110 6.1 15.6 0.00 0.04 0.00 76 1018.9
20240613173955 76 80 10.4 14.8 0.00 0.04 0.00 79 1019.0
20240613173725 76 82 2.6 15.6 0.00 0.04 0.00 80 1019.0
20240613172956 76 93 7.8 15.6 0.00 0.04 0.00 78 1018.9
20240613172455 76 111 7.8 15.6 0.00 0.04 0.00 78 1018.8
20240613171956 76 94 7.8 15.6 0.00 0.04 0.00 77 1018.7
20240613171455 76 115 8.7 15.6 0.00 0.04 0.00 79 1018.6
20240613170955 76 110 7.0 15.6 0.00 0.04 0.00 78 1018.7
20240613170455 76 103 7.0 14.8 0.00 0.04 0.00 79 1018.7
20240613165956 76 99 8.7 12.2 0.00 0.04 0.00 79 1018.6
20240613165455 76 135 6.1 13.0 0.00 0.04 0.00 79 1018.8
20240613164955 76 80 7.0 13.0 0.00 0.04 0.00 79 1018.4
20240613164454 75 73 7.8 15.6 0.00 0.04 0.00 78 1018.4
20240613163955 75 86 6.1 15.6 0.00 0.04 0.00 79 1018.6
20240613163454 76 82 7.8 14.8 0.00 0.04 0.00 80 1018.3
20240613163226 75 68 5.2 12.2 0.00 0.04 0.00 80 1018.4
20240613162456 75 93 6.1 12.2 0.00 0.04 0.00 80 1018.2
20240613161955 75 110 5.2 15.6 0.00 0.04 0.00 80 1018.5
20240613161455 75 69 6.1 15.6 0.00 0.04 0.00 80 1018.2
20240613160955 75 90 7.0 13.9 0.00 0.04 0.00 81 1018.0
20240613160456 74 107 3.5 13.9 0.00 0.04 0.00 81 1018.2
20240613155955 74 125 6.1 12.2 0.00 0.04 0.00 81 1018.0
20240613155455 74 102 3.5 12.2 0.00 0.04 0.00 81 1017.9
20240613155228 74 120 6.1 14.8 0.00 0.04 0.00 81 1017.9
20240613154727 74 86 7.0 14.8 0.00 0.04 0.00 80 1017.8
20240613153955 74 84 6.1 14.8 0.00 0.04 0.00 81 1017.8
20240613153455 75 127 4.3 15.6 0.00 0.04 0.00 81 1017.8
20240613152956 75 123 3.5 15.6 0.00 0.04 0.00 80 1017.8
20240613152456 74 96 5.2 13.9 0.00 0.04 0.00 79 1017.4
20240613151956 74 122 3.5 11.3 0.00 0.04 0.00 80 1017.7
20240613151456 75 104 7.0 13.0 0.00 0.04 0.00 80 1017.7
20240613150955 75 69 3.5 15.6 0.00 0.04 0.00 80 1017.4
20240613150455 74 115 5.2 15.6 0.00 0.04 0.00 80 1017.7
20240613145955 75 138 4.3 12.2 0.00 0.04 0.00 80 1017.3
20240613145455 75 106 5.2 13.0 0.00 0.04 0.00 80 1017.5
20240613144956 75 92 6.1 13.0 0.00 0.04 0.00 79 1017.6
20240613144726 75 110 6.1 13.9 0.00 0.05 0.00 80 1017.6
20240613144227 74 89 7.0 13.9 0.00 0.05 0.00 78 1017.3
20240613143455 74 64 10.4 13.9 0.00 0.05 0.00 79 1017.1
20240613142955 74 136 5.2 13.9 0.00 0.05 0.00 79 1017.3
20240613142455 75 69 6.1 14.8 0.00 0.05 0.00 79 1017.2
20240613142000 75 83 7.8 14.8 0.00 0.05 0.00 78 1017.4
20240613141955 75 68 8.7 14.8 0.00 0.05 0.00 79 1017.4
20240613140956 75 76 7.8 14.8 0.00 0.05 0.00 79 1017.1
20240613140456 75 105 7.8 13.0 0.00 0.05 0.00 80 1017.2
20240613135954 75 58 4.3 14.8 0.00 0.05 0.00 79 1017.2
20240613135455 75 85 4.3 15.6 0.00 0.05 0.00 78 1017.2
20240613134956 75 40 7.8 13.9 0.00 0.05 0.00 80 1017.4
20240613134726 75 98 5.2 15.6 0.00 0.05 0.00 81 1017.2
20240613133955 75 115 6.1 15.6 0.00 0.05 0.00 81 1016.9
20240613133456 75 104 6.1 14.8 0.00 0.05 0.00 82 1017.3
20240613132955 75 98 7.8 14.8 0.00 0.05 0.00 81 1017.2
20240613132454 75 92 10.4 13.9 0.00 0.05 0.00 81 1017.2
20240613131955 75 80 5.2 13.0 0.00 0.05 0.00 80 1017.2
20240613131456 75 123 5.2 12.2 0.00 0.05 0.00 80 1017.3
20240613130955 75 97 4.3 12.2 0.00 0.05 0.00 79 1017.4
20240613130726 74 120 3.5 11.3 0.00 0.05 0.00 79 1017.4
20240613125955 74 100 4.3 11.3 0.00 0.05 0.00 80 1017.3
20240613125455 74 165 6.1 15.6 0.00 0.05 0.00 80 1017.3
20240613124955 74 101 5.2 15.6 0.00 0.06 0.00 80 1017.3
20240613124455 75 78 8.7 13.0 0.00 0.07 0.00 81 1017.4
20240613123955 75 85 1.7 13.0 0.00 0.07 0.00 81 1017.2
20240613123443 74 110 7.0 13.0 0.00 0.07 0.00 80 1017.3
20240613122942 75 102 7.0 13.0 0.00 0.07 0.00 81 1017.1
20240613122442 75 79 6.1 13.0 0.00 0.07 0.00 81 1017.1
20240613121942 75 85 5.2 12.2 0.00 0.07 0.00 81 1017.4
20240613121443 75 107 4.3 13.0 0.00 0.07 0.00 81 1017.2
20240613121215 75 102 4.3 13.9 0.00 0.11 0.00 81 1017.2
20240613120443 75 104 6.1 13.9 0.00 0.11 0.00 81 1017.4
20240613115943 75 92 5.2 13.0 0.00 0.11 0.00 81 1017.2
20240613115715 75 77 5.2 14.8 0.00 0.11 0.00 80 1017.2
20240613114951 75 105 5.2 14.8 0.00 0.11 0.00 80 1017.3
20240613114942 75 128 7.8 14.8 0.00 0.11 0.00 80 1017.5
20240613114443 75 72 5.2 14.8 0.00 0.11 0.00 80 1017.3